Hourly Weather Roundup
Issued by NWS Central Illinois

Home | Current Version | Previous Version | Text Only | Print | Product List | Glossary On
Versions: 1 2 3 4 5 6 7 8 9 10 11 12 13 14 15 16 17 18 19 20 21 22 23 24 25 26 27 28 29 30 31 32 33 34 35 36 37 38 39 40 41 42 43 44 45 46 47 48 49 50
000
NZUS43 KILX 231210
HWRILX

AREA WEATHER ROUNDUP
NATIONAL WEATHER SERVICE, LINCOLN IL
700 AM CDT WED APR 23 2014


CITY           SKY/WX    TMP DP  RH WIND       PRES   REMARKS
BLOOMINGTON    CLEAR     33  28  82 NE9       30.15R WCI  25
CHAMPAIGN      CLEAR     39  29  67 NE8       30.14R WCI  33
6HR MIN TEMP:  36; 6HR MAX TEMP:  42;

DANVILLE       SUNNY     34  30  83 NW5       30.13R WCI  30
6HR MIN TEMP:  32; 6HR MAX TEMP:  38;

DECATUR        CLEAR     35  29  78 E8        30.13R WCI  29
6HR MIN TEMP:  31; 6HR MAX TEMP:  43;

FLORA          NOT AVBL
GALESBURG      MOCLDY    37  32  81 E3        30.16R
JACKSONVILLE   PTCLDY    38  32  80 E5        30.14R WCI  34
6HR MIN TEMP:  36; 6HR MAX TEMP:  48;

LACON          CLEAR     35  30  82 NE3       30.16R
6HR MIN TEMP:  29; 6HR MAX TEMP:  38;

LAWRENCEVILLE  SUNNY     44  30  57 NE9       30.14R
6HR MIN TEMP:  42; 6HR MAX TEMP:  50;

LITCHFIELD     CLEAR     42  31  65 E13       30.11R WCI  35
$$


CITY           SKY/WX    TMP DP  RH WIND       PRES   REMARKS
LINCOLN        CLEAR     37  30  77 E6        30.15R WCI  32
6HR MIN TEMP:  35; 6HR MAX TEMP:  43;

MACOMB         CLOUDY    38  32  78 E5        30.17R WCI  35
MATTOON        CLEAR     37  29  72 NE7       30.13R WCI  32
6HR MIN TEMP:  35; 6HR MAX TEMP:  45;

MT CARMEL AP   CLEAR     45  36  70 NE3       30.13R
OLNEY-NOBLE AP CLEAR     41  34  75 CALM      30.13R
PARIS          SUNNY     38  30  73 N3        30.15R
6HR MIN TEMP:  36; 6HR MAX TEMP:  45;

PEORIA         CLEAR     40  29  64 E6        30.16R
6HR MIN TEMP:  39; 6HR MAX TEMP:  44;

PONTIAC        CLEAR     34  30  86 CALM      30.16R
RANTOUL        CLEAR     38  29  71 CALM      30.16R
6HR MIN TEMP:  36; 6HR MAX TEMP:  42;

ROBINSON       SUNNY     42  35  76 NE7       30.14S
6HR MIN TEMP:  39; 6HR MAX TEMP:  48;

SPRINGFIELD    CLEAR     41  28  60 E12       30.14R WCI  34
6HR MIN TEMP:  39; 6HR MAX TEMP:  47;

TAYLORVILLE    CLEAR     39  30  70 E9        30.14R WCI  33
$$

...REGIONAL REPORTS...


CITY           SKY/WX    TMP DP  RH WIND       PRES   REMARKS
CHICAGO O`HARE MOSUNNY   36  27  69 NE6       30.16R WCI  31
KANKAKEE       SUNNY     36  30  80 N6        30.16R WCI  31
MOLINE         MOCLDY    38  30  73 E6        30.16R WCI  33
MOUNT VERNON   CLEAR     45  30  57 NE8       30.11R
PITTSFIELD     CLEAR     42  32  68 E7        30.13R
QUINCY         CLEAR     42  33  70 E10       30.11R
ROCKFORD       PTCLDY    34  28  79 NE6       30.18R WCI  29
$$


CITY           SKY/WX    TMP DP  RH WIND       PRES   REMARKS
BURLINGTON     CLOUDY    41  31  67 E9        30.12R
CEDAR RAPIDS   MOCLDY    41  32  70 SE14      30.10F WCI  33
DES MOINES     CLOUDY    50  31  48 SE10      30.06R
KIRKSVILLE     CLOUDY    47  33  58 E9        30.08R
OTTUMWA        CLOUDY    42  33  70 E13       30.08R
ST LOUIS       PTCLDY    48  35  60 E9        30.10R
$$


CITY           SKY/WX    TMP DP  RH WIND       PRES   REMARKS
TERRE HAUTE    SUNNY     40  30  67 N5        30.13R
EVANSVILLE     CLEAR     46  36  68 NE7       30.11R
INDIANAPOLIS   SUNNY     37  28  70 N8        30.10R WCI  31
LAFAYETTE      SUNNY     35  28  75 N7        30.13R WCI  29
MADISON        PTCLDY    32  28  85 CALM      30.17R
MILWAUKEE      MOSUNNY   36  29  75 N7        30.17R WCI  30
$$





USA.gov is the U.S. government's official web portal to all federal, state and local government web resources and services.